QPF
0.00 0.00 0.00 0.00 0.00 0.00 0.00 0.00 0.00 0.00 0.00 0.00 0.00 0.00 0.00 0.00 0.00 0.00 0.00 0.00 0.00 0.00 0.00 0.00 0.00 0.00 0.00 0.00 0.00 0.01 0.01 0.00 0.00 0.00 0.00 0.00 0.00 0.00 0.00 0.00 0.00 0.00 0.00 0.00
0.00 0.00 0.00 0.00 0.00 0.00 0.00 0.00 0.00 0.00 0.00 0.00 0.00 0.00 0.00 0.00 0.00 0.00 0.00 0.00 0.00 0.00 0.00 0.00 0.00 0.00 0.00 0.00 0.00 0.00 0.00 0.00 0.00 0.00 0.00 0.00 0.00 0.00 0.00 0.00 0.00 0.00 0.00 0.00
0.00 0.00 0.00 0.00 0.00 0.00 0.00 0.00 0.00 0.00 0.00 0.00 0.00 0.00 0.00 0.00 0.00 0.00 0.00 0.00 0.00 0.00 0.00 0.00 0.00 0.00 0.00 0.00 0.00 0.01 0.00 0.00 0.00 0.00 0.00 0.00 0.00 0.00 0.00 0.00 0.00 0.00 0.00 0.00
0.00 0.00 0.00 0.00 0.00 0.00 0.00 0.00 0.00 0.00 0.00 0.00 0.00 0.00 0.00 0.00 0.00 0.00 0.00 0.00 0.00 0.00 0.00 0.00 0.00 0.00 0.00 0.00 0.00 0.00 0.00 0.00 0.00 0.00 0.00 0.00 0.00 0.00 0.00 0.00 0.00 0.00 0.00 0.00
0.00 0.00 0.00 0.00 0.00 0.00 0.00 0.00 0.00 0.00 0.00 0.00 0.00 0.01 0.00 0.00 0.00 0.00 0.00 0.00 0.00 0.00 0.00 0.00 0.00 0.00 0.00 0.00 0.00 0.00 0.00 0.00 0.00 0.00 0.00 0.00 0.00 0.00 0.00 0.00 0.00 0.00 0.00 0.00
0.00 0.00 0.00 0.00 0.00 0.00 0.00 0.00 0.00 0.00 0.00 0.00 0.00 0.00 0.00 0.00 0.00 0.01 0.00 0.00 0.00 0.00 0.00 0.00 0.00 0.00 0.00 0.00 0.00 0.00 0.00 0.00 0.00 0.00 0.00 0.00 0.00 0.00 0.00 0.00 0.00 0.00 0.00 0.00
0.00 0.00 0.00 0.00 0.00 0.00 0.00 0.00 0.00 0.00 0.00 0.00 0.00 0.00 0.00 0.00 0.06 0.11 0.06 0.00 0.00 0.00 0.00 0.00 0.00 0.00 0.00 0.00 0.02 0.03 0.01 0.00 0.00 0.00 0.00 0.02 0.00 0.00 0.00 0.00 0.00 0.00 0.00 0.00
0.00 0.00 0.00 0.00 0.00 0.00 0.00 0.00 0.00 0.00 0.00 0.00 0.00 0.00 0.00 0.00 0.02 0.03 0.03 0.00 0.00 0.00 0.00 0.00 0.00 0.00 0.00 0.00 0.00 0.01 0.00 0.00 0.00 0.01 0.03 0.05 0.00 0.00 0.01 0.02 0.04 0.04 0.05 0.01
0.00 0.00 0.00 0.00 0.00 0.00 0.00 0.00 0.00 0.00 0.00 0.00 0.00 0.00 0.00 0.01 0.03 0.02 0.03 0.00 0.00 0.00 0.00 0.00 0.00 0.00 0.00 0.00 0.00 0.00 0.00 0.00 0.00 0.00 0.06 0.05 0.01 0.04 0.02 0.05 0.07 0.06 0.04 0.02
0.00 0.00 0.00 0.00 0.00 0.00 0.00 0.00 0.00 0.00 0.00 0.00 0.00 0.00 0.01 0.01 0.03 0.02 0.00 0.00 0.00 0.00 0.00 0.00 0.00 0.00 0.00 0.01 0.02 0.03 0.02 0.04 0.04 0.03 0.05 0.04 0.02 0.05 0.06 0.08 0.04 0.04 0.03 0.05
0.00 0.00 0.00 0.00 0.00 0.00 0.00 0.00 0.00 0.00 0.00 0.00 0.00 0.01 0.03 0.02 0.03 0.06 0.03 0.01 0.00 0.00 0.00 0.00 0.00 0.00 0.00 0.00 0.01 0.05 0.03 0.07 0.09 0.08 0.05 0.02 0.04 0.06 0.11 0.14 0.09 0.05 0.04 0.03
0.00 0.00 0.00 0.00 0.00 0.00 0.00 0.00 0.00 0.00 0.00 0.00 0.00 0.00 0.04 0.04 0.04 0.07 0.05 0.02 0.00 0.00 0.00 0.00 0.00 0.00 0.00 0.00 0.01 0.06 0.08 0.06 0.08 0.09 0.07 0.04 0.05 0.07 0.11 0.12 0.09 0.10 0.06 0.02
0.00 0.00 0.00 0.00 0.00 0.00 0.00 0.00 0.00 0.01 0.01 0.00 0.00 0.00 0.03 0.05 0.06 0.08 0.09 0.03 0.00 0.00 0.00 0.00 0.00 0.00 0.00 0.00 0.01 0.02 0.07 0.10 0.06 0.08 0.07 0.05 0.09 0.05 0.05 0.09 0.10 0.08 0.05 0.03
0.00 0.00 0.00 0.00 0.00 0.00 0.00 0.00 0.00 0.02 0.00 0.00 0.00 0.00 0.01 0.02 0.03 0.08 0.13 0.02 0.00 0.00 0.00 0.00 0.00 0.00 0.00 0.00 0.01 0.04 0.02 0.03 0.04 0.08 0.04 0.00 0.04 0.08 0.05 0.06 0.11 0.11 0.09 0.06
0.00 0.00 0.00 0.00 0.00 0.00 0.00 0.00 0.00 0.01 0.00 0.01 0.01 0.01 0.01 0.01 0.02 0.04 0.06 0.02 0.00 0.01 0.00 0.00 0.00 0.00 0.00 0.00 0.00 0.01 0.01 0.03 0.04 0.02 0.02 0.02 0.04 0.09 0.10 0.06 0.10 0.08 0.04 0.03
0.00 0.00 0.01 0.00 0.00 0.00 0.00 0.00 0.00 0.00 0.00 0.00 0.00 0.00 0.00 0.01 0.01 0.02 0.01 0.02 0.01 0.03 0.08 0.08 0.08 0.04 0.02 0.00 0.00 0.00 0.00 0.02 0.04 0.03 0.04 0.07 0.07 0.10 0.05 0.05 0.06 0.05 0.02 0.00
0.00 0.01 0.01 0.00 0.00 0.00 0.01 0.00 0.00 0.00 0.00 0.00 0.00 0.00 0.00 0.01 0.01 0.01 0.01 0.03 0.01 0.02 0.04 0.08 0.11 0.10 0.09 0.05 0.03 0.04 0.04 0.05 0.06 0.06 0.06 0.07 0.08 0.07 0.03 0.01 0.02 0.01 0.00 0.00
0.00 0.01 0.00 0.00 0.00 0.00 0.01 0.00 0.00 0.00 0.00 0.00 0.00 0.00 0.00 0.00 0.01 0.00 0.02 0.02 0.05 0.06 0.08 0.08 0.09 0.13 0.13 0.21 0.24 0.22 0.14 0.05 0.02 0.03 0.04 0.04 0.03 0.03 0.01 0.00 0.00 0.00 0.00 0.00
0.00 0.00 0.01 0.01 0.00 0.00 0.00 0.00 0.00 0.00 0.00 0.00 0.00 0.00 0.00 0.00 0.00 0.00 0.02 0.03 0.07 0.11 0.10 0.09 0.07 0.06 0.05 0.06 0.08 0.10 0.13 0.06 0.03 0.02 0.01 0.02 0.01 0.00 0.00 0.00 0.00 0.00 0.00 0.00
0.00 0.00 0.01 0.01 0.01 0.00 0.00 0.00 0.00 0.00 0.00 0.00 0.00 0.00 0.00 0.00 0.00 0.00 0.00 0.03 0.05 0.06 0.08 0.07 0.07 0.06 0.10 0.09 0.06 0.05 0.06 0.05 0.04 0.03 0.02 0.00 0.00 0.00 0.00 0.00 0.00 0.00 0.00 0.00
0.00 0.00 0.00 0.00 0.01 0.00 0.00 0.00 0.00 0.00 0.00 0.00 0.00 0.00 0.00 0.00 0.00 0.00 0.00 0.02 0.05 0.08 0.07 0.03 0.05 0.03 0.01 0.01 0.00 0.00 0.01 0.02 0.02 0.01 0.00 0.00 0.00 0.00 0.00 0.00 0.00 0.00 0.00 0.00
0.00 0.00 0.00 0.00 0.00 0.00 0.00 0.00 0.00 0.00 0.00 0.00 0.00 0.00 0.00 0.00 0.00 0.00 0.00 0.00 0.01 0.02 0.04 0.04 0.04 0.03 0.02 0.02 0.01 0.00 0.00 0.00 0.00 0.00 0.00 0.00 0.00 0.00 0.00 0.00 0.00 0.00 0.00 0.00
0.00 0.00 0.00 0.00 0.00 0.00 0.00 0.00 0.00 0.00 0.00 0.00 0.00 0.00 0.00 0.00 0.00 0.00 0.00 0.00 0.00 0.00 0.00 0.00 0.01 0.01 0.01 0.01 0.00 0.00 0.00 0.00 0.00 0.00 0.00 0.00 0.00 0.00 0.00 0.00 0.00 0.00 0.00 0.00
0.00 0.00 0.00 0.00 0.00 0.00 0.00 0.00 0.00 0.00 0.00 0.00 0.00 0.00 0.00 0.00 0.00 0.00 0.00 0.00 0.00 0.00 0.00 0.00 0.00 0.00 0.00 0.00 0.00 0.00 0.00 0.00 0.00 0.00 0.00 0.00 0.00 0.00 0.00 0.00 0.00 0.00 0.00 0.00
0.00 0.00 0.00 0.00 0.00 0.00 0.00 0.00 0.00 0.00 0.00 0.00 0.00 0.00 0.00 0.00 0.00 0.00 0.00 0.00 0.00 0.00 0.00 0.00 0.00 0.00 0.00 0.00 0.00 0.00 0.00 0.00 0.00 0.00 0.00 0.00 0.00 0.00 0.00 0.00 0.00 0.00 0.00 0.00
0.00 0.00 0.00 0.00 0.00 0.00 0.00 0.00 0.00 0.00 0.00 0.00 0.00 0.00 0.00 0.00 0.00 0.00 0.00 0.00 0.00 0.00 0.00 0.00 0.00 0.00 0.00 0.00 0.00 0.00 0.00 0.00 0.00 0.00 0.00 0.00 0.00 0.00 0.00 0.00 0.00 0.00 0.00 0.00
MSLP
1011.70 1011.68 1011.26 1011.41 1011.55 1011.40 1011.03 1010.50 1009.30 1008.25 1007.18 1006.67 1005.02 1004.38 1002.45 1002.86 1002.67 1002.20 1001.78 1001.68 1001.62 1001.77 1001.11 1001.06 1001.20 1001.42 1001.59 1001.83 1002.05 1002.44 1003.08 1003.95 1004.59 1005.19 1005.70 1006.61 1007.24 1008.25 1009.00 1009.55 1010.06 1010.74 1011.28 1011.70
1011.69 1011.09 1011.21 1011.52 1011.37 1011.05 1010.56 1009.90 1008.52 1007.51 1006.85 1006.40 1004.00 1002.74 1001.69 1001.47 1001.36 1001.10 1000.66 1000.56 1000.48 1000.40 1000.38 1000.20 1000.27 1000.82 1000.94 1001.35 1001.70 1002.03 1002.60 1003.29 1003.95 1004.52 1005.01 1005.52 1006.65 1007.83 1008.61 1009.23 1009.80 1010.25 1010.79 1011.28
1011.53 1011.02 1011.14 1011.21 1010.88 1010.43 1009.70 1009.23 1007.97 1007.24 1006.42 1005.92 1003.90 1001.63 1000.72 999.92 1000.16 999.99 999.66 999.56 999.84 1000.01 999.67 999.03 999.15 999.76 1000.12 1000.68 1001.24 1001.63 1002.23 1002.63 1003.29 1004.02 1004.82 1005.67 1006.60 1007.77 1008.40 1008.83 1009.28 1009.79 1010.26 1010.90
1011.38 1011.30 1011.16 1010.80 1010.53 1010.09 1008.74 1008.46 1008.06 1007.02 1006.60 1005.43 1004.86 1001.67 1000.71 999.90 999.43 999.30 998.85 998.59 998.43 998.64 998.98 998.50 998.08 998.62 999.13 999.66 1000.48 1001.07 1001.57 1002.13 1003.06 1003.87 1004.16 1004.36 1005.47 1006.42 1007.19 1008.03 1008.81 1009.60 1010.03 1010.88
1011.45 1011.22 1011.06 1010.60 1009.87 1009.92 1008.86 1008.40 1007.62 1006.99 1006.74 1006.50 1004.77 1004.10 1000.17 999.52 998.85 998.47 998.30 998.00 997.40 997.44 997.55 997.33 997.04 997.80 998.04 998.55 999.48 1000.47 1001.32 1002.07 1002.81 1003.26 1003.36 1003.78 1004.89 1005.86 1006.53 1007.77 1008.78 1009.60 1010.08 1010.71
1011.73 1011.46 1011.33 1010.41 1009.96 1009.61 1009.09 1008.35 1006.88 1006.78 1006.98 1006.40 1004.55 1004.19 1000.06 999.70 999.29 998.62 997.61 996.92 996.46 996.25 996.35 996.46 996.12 997.14 997.29 997.95 998.96 999.98 1000.96 1001.63 1002.37 1002.81 1003.02 1003.88 1004.52 1005.31 1006.31 1007.42 1008.48 1009.45 1010.15 1011.05
1011.72 1010.90 1010.56 1010.53 1009.78 1008.97 1009.10 1008.32 1007.51 1007.05 1006.66 1004.82 1004.85 1004.48 1001.50 1000.43 999.85 999.14 997.97 996.72 995.69 995.53 995.50 995.44 995.98 996.02 996.84 997.60 998.37 999.51 1000.34 1001.16 1002.29 1002.70 1002.77 1003.37 1004.00 1004.90 1006.06 1007.29 1008.09 1008.86 1010.17 1010.82
1012.66 1010.84 1010.65 1010.50 1010.40 1009.90 1009.60 1009.93 1009.93 1008.92 1006.89 1004.40 1004.47 1003.99 1002.30 1000.94 1000.07 998.97 997.75 996.50 995.55 995.28 994.88 994.86 995.19 995.34 996.04 997.00 997.84 998.67 999.84 1000.74 1001.18 1002.56 1001.19 1002.56 1003.86 1005.04 1006.16 1007.43 1007.99 1008.70 1009.78 1010.91
1013.45 1011.64 1010.71 1010.62 1010.12 1010.11 1009.62 1009.75 1010.17 1009.46 1007.78 1006.54 1004.52 1004.12 1002.85 1001.21 999.99 998.95 997.48 996.20 995.49 995.36 994.87 994.40 994.48 994.80 995.38 996.56 997.23 997.86 998.59 999.65 999.18 1000.78 1001.67 1002.74 1004.11 1004.82 1006.19 1007.25 1007.87 1008.88 1010.26 1011.28
1014.32 1013.05 1010.94 1010.18 1009.76 1009.79 1010.00 1010.33 1010.23 1010.13 1008.45 1006.05 1004.59 1004.34 1003.72 1002.06 1000.74 999.80 998.51 996.98 995.61 994.81 994.48 994.19 993.98 994.37 994.99 996.40 997.22 997.94 998.58 999.43 1000.01 1001.21 1002.16 1003.04 1003.98 1004.76 1005.66 1007.60 1008.33 1008.76 1010.12 1011.38
1014.43 1014.01 1011.42 1010.08 1009.44 1009.31 1009.51 1010.35 1010.46 1010.37 1009.20 1007.86 1005.93 1005.04 1004.44 1003.44 1002.30 1000.84 999.52 997.90 995.86 994.93 994.54 994.19 994.08 994.38 995.06 996.17 997.25 998.26 999.07 1000.06 1000.93 1001.66 1002.32 1003.24 1004.60 1005.62 1006.39 1007.75 1009.13 1009.53 1010.75 1011.84
1014.29 1013.77 1011.92 1010.14 1009.54 1009.69 1009.71 1010.03 1010.27 1009.60 1008.41 1008.00 1007.24 1005.46 1004.33 1003.56 1002.60 1001.52 999.96 998.22 995.71 994.47 994.26 994.38 994.32 994.89 995.34 996.13 997.24 998.62 999.49 1000.27 1001.16 1002.13 1002.64 1004.28 1005.40 1006.20 1007.17 1008.23 1009.57 1010.35 1011.59 1011.83
1014.23 1013.57 1012.00 1009.59 1009.48 1008.84 1009.02 1009.20 1009.80 1009.27 1008.81 1008.00 1007.18 1006.04 1004.62 1003.52 1002.51 1001.43 1000.42 998.76 995.98 994.92 994.19 994.40 994.78 995.17 995.93 996.90 997.60 998.52 999.27 1000.70 1001.76 1002.79 1003.84 1005.14 1006.23 1007.23 1008.24 1009.67 1010.55 1010.92 1011.62 1012.59
1014.26 1013.61 1012.89 1011.85 1010.64 1009.60 1009.05 1008.94 1009.24 1008.92 1008.71 1008.07 1007.43 1006.12 1004.60 1004.16 1003.64 1002.03 1001.42 999.84 997.47 995.90 995.18 994.97 995.20 995.91 996.61 997.19 998.08 998.90 999.58 1000.65 1002.19 1003.37 1004.09 1005.48 1006.80 1007.90 1009.11 1010.62 1011.59 1011.74 1012.26 1012.68
1014.03 1013.24 1012.50 1011.34 1010.33 1009.62 1009.19 1009.04 1008.73 1008.48 1008.78 1008.40 1007.31 1006.37 1005.53 1004.84 1004.80 1003.88 1002.74 1000.96 999.28 997.91 997.12 996.26 996.30 996.42 997.27 998.04 998.34 998.98 999.51 1000.88 1002.12 1003.44 1004.83 1006.30 1007.44 1008.76 1009.78 1010.98 1012.18 1013.10 1013.66 1013.46
1014.05 1013.07 1012.31 1010.66 1009.64 1009.23 1009.06 1008.70 1008.52 1008.15 1008.45 1008.29 1007.45 1006.53 1005.92 1005.04 1004.59 1004.29 1003.68 1002.41 1001.18 1000.08 999.07 998.47 998.16 997.53 998.08 998.42 998.96 999.44 1000.37 1001.66 1002.60 1004.52 1005.98 1007.11 1008.16 1009.28 1010.70 1012.12 1012.48 1015.12 1013.82 1014.23
1014.30 1013.34 1012.28 1010.35 1009.43 1008.86 1008.81 1008.53 1008.41 1008.16 1008.33 1008.53 1007.54 1007.30 1006.06 1005.33 1004.98 1005.26 1004.62 1003.75 1003.03 1002.14 1001.05 1000.30 999.77 999.47 999.31 999.68 1000.38 1000.28 1001.39 1002.66 1003.90 1005.29 1006.78 1007.93 1008.80 1009.90 1011.64 1012.54 1012.76 1014.56 1015.23 1015.27
1013.98 1013.36 1012.78 1011.09 1009.89 1008.55 1008.67 1008.39 1008.35 1008.12 1008.04 1008.09 1007.79 1007.36 1006.70 1006.06 1005.45 1005.96 1005.72 1005.16 1004.30 1003.75 1002.98 1002.06 1001.48 1001.02 1001.00 1001.03 1001.58 1002.02 1003.12 1003.83 1005.10 1006.36 1007.72 1008.97 1009.64 1010.62 1012.20 1013.57 1013.53 1014.61 1015.02 1015.92
1013.94 1013.54 1012.78 1011.76 1010.53 1009.28 1008.83 1008.24 1008.23 1008.13 1007.70 1007.72 1007.67 1007.32 1007.02 1006.34 1005.46 1005.99 1006.40 1006.17 1005.52 1004.88 1004.34 1003.65 1002.65 1002.13 1002.26 1002.38 1002.62 1003.18 1004.44 1005.39 1006.18 1007.43 1008.42 1009.47 1010.62 1011.78 1013.18 1013.66 1014.12 1015.69 1015.72 1017.33
1013.60 1013.54 1013.35 1011.90 1010.87 1009.40 1008.89 1008.34 1008.04 1007.94 1007.17 1007.56 1007.78 1007.64 1007.37 1007.14 1006.68 1007.09 1007.30 1007.05 1006.34 1005.68 1005.29 1004.74 1004.30 1003.81 1003.47 1003.74 1003.81 1004.64 1005.76 1006.74 1007.59 1008.80 1009.33 1010.19 1011.51 1012.79 1013.93 1014.59 1014.88 1016.34 1016.83 1017.23
1012.93 1012.64 1012.34 1011.71 1010.98 1009.24 1008.94 1008.44 1007.81 1007.48 1007.83 1007.77 1007.85 1007.93 1007.87 1008.22 1008.83 1008.52 1008.14 1007.88 1007.50 1006.80 1006.10 1005.76 1005.45 1005.15 1004.86 1004.78 1004.92 1005.59 1006.44 1007.57 1008.84 1009.85 1010.36 1011.42 1012.81 1013.17 1014.39 1015.70 1015.89 1017.30 1017.70 1018.26
1013.09 1012.52 1011.67 1011.36 1010.54 1009.42 1009.04 1008.44 1008.33 1008.27 1007.90 1007.85 1007.93 1008.10 1008.22 1008.48 1008.84 1008.80 1008.50 1008.26 1008.03 1007.82 1007.31 1006.94 1006.55 1006.40 1006.16 1006.16 1006.02 1006.82 1007.50 1008.83 1010.04 1011.02 1011.20 1012.53 1013.38 1014.30 1015.10 1016.45 1017.34 1018.17 1018.24 1019.20
1013.09 1012.39 1011.90 1011.32 1009.52 1009.13 1009.00 1008.63 1008.42 1008.24 1008.10 1007.94 1008.20 1008.28 1008.33 1008.48 1008.82 1009.18 1009.05 1008.89 1008.50 1008.02 1008.32 1008.01 1007.78 1007.36 1007.22 1007.09 1007.10 1007.47 1008.60 1009.45 1010.90 1011.84 1012.48 1013.66 1014.50 1015.76 1016.10 1016.91 1017.85 1018.54 1019.06 1019.79
1012.58 1012.29 1011.64 1010.98 1009.16 1008.96 1008.70 1008.40 1008.35 1007.98 1007.89 1007.98 1008.32 1008.53 1008.49 1008.62 1008.96 1009.23 1009.45 1009.40 1009.22 1008.99 1008.74 1008.71 1008.50 1008.48 1008.36 1008.28 1008.52 1008.70 1009.25 1009.94 1011.45 1012.90 1014.10 1014.10 1015.21 1016.03 1016.81 1017.86 1018.42 1019.09 1019.69 1020.02
1012.68 1012.16 1010.88 1010.15 1009.34 1008.76 1007.87 1007.88 1007.78 1007.73 1007.85 1008.01 1008.26 1008.57 1008.61 1008.69 1009.10 1009.35 1009.50 1009.73 1009.75 1009.67 1009.68 1009.71 1009.44 1009.40 1009.45 1009.56 1009.51 1010.34 1010.35 1010.70 1012.13 1013.41 1014.39 1015.10 1016.01 1016.60 1017.56 1018.37 1019.14 1019.50 1019.96 1020.22
1011.45 1010.82 1010.34 1009.05 1008.87 1008.82 1008.29 1007.86 1007.84 1007.77 1007.68 1007.80 1008.15 1008.43 1008.70 1008.94 1009.22 1009.54 1009.70 1009.87 1010.10 1010.14 1010.15 1010.22 1010.20 1010.17 1010.33 1010.68 1010.79 1011.27 1011.40 1011.63 1012.48 1013.80 1015.09 1015.73 1016.51 1017.46 1018.03 1018.90 1019.80 1020.82 1021.73 1022.48
Thickness
5628 5621 5620 5617 5612 5609 5604 5600 5605 5617 5628 5618 5627 5622 5642 5636 5630 5631 5638 5640 5640 5643 5670 5681 5690 5706 5718 5732 5744 5751 5754 5758 5762 5763 5761 5760 5760 5757 5753 5750 5747 5744 5744 5744
5623 5621 5620 5613 5608 5604 5602 5599 5609 5621 5623 5616 5630 5630 5641 5636 5627 5626 5632 5637 5642 5646 5654 5669 5680 5693 5708 5722 5733 5742 5749 5754 5758 5761 5761 5764 5760 5755 5750 5748 5745 5743 5743 5743
5614 5621 5616 5608 5602 5600 5606 5599 5610 5611 5616 5616 5623 5628 5640 5642 5629 5624 5628 5632 5630 5634 5642 5663 5674 5686 5705 5713 5723 5734 5743 5752 5754 5757 5755 5755 5752 5747 5745 5746 5745 5745 5745 5743
5617 5615 5609 5603 5597 5600 5604 5612 5608 5610 5604 5598 5607 5597 5621 5626 5622 5617 5620 5623 5630 5633 5635 5649 5667 5675 5697 5712 5720 5729 5740 5747 5748 5749 5752 5758 5758 5754 5755 5750 5745 5741 5741 5737
5613 5608 5602 5597 5604 5600 5603 5609 5606 5606 5596 5583 5594 5574 5617 5622 5615 5615 5612 5612 5617 5626 5631 5646 5661 5668 5691 5708 5718 5724 5729 5737 5739 5745 5753 5758 5756 5755 5753 5744 5739 5734 5736 5732
5607 5610 5599 5602 5601 5602 5604 5601 5613 5601 5584 5574 5590 5573 5612 5606 5601 5601 5606 5603 5601 5611 5626 5640 5660 5663 5679 5696 5708 5716 5721 5728 5733 5740 5746 5748 5750 5752 5747 5741 5734 5729 5729 5724
5603 5610 5608 5602 5600 5606 5600 5595 5585 5594 5588 5603 5579 5559 5588 5596 5594 5589 5586 5587 5590 5602 5620 5635 5641 5659 5670 5681 5699 5709 5715 5718 5722 5731 5743 5743 5750 5749 5741 5733 5729 5729 5720 5719
5584 5598 5602 5598 5590 5586 5587 5576 5565 5570 5586 5600 5588 5567 5575 5593 5593 5595 5595 5594 5596 5605 5623 5634 5642 5659 5672 5680 5690 5707 5711 5712 5723 5725 5745 5745 5747 5739 5731 5723 5722 5721 5717 5710
5576 5589 5599 5593 5592 5586 5586 5580 5575 5556 5565 5561 5581 5573 5574 5591 5595 5595 5601 5605 5609 5611 5623 5636 5647 5660 5674 5680 5691 5702 5713 5718 5735 5734 5737 5740 5733 5729 5720 5717 5717 5712 5704 5700
5572 5566 5592 5594 5593 5588 5579 5576 5565 5554 5570 5582 5589 5571 5565 5579 5585 5587 5593 5604 5616 5626 5632 5641 5655 5666 5679 5681 5688 5698 5708 5714 5724 5726 5732 5729 5724 5724 5722 5710 5708 5708 5702 5693
5566 5560 5582 5593 5590 5584 5580 5561 5560 5555 5558 5566 5572 5576 5568 5570 5574 5582 5589 5600 5623 5630 5634 5645 5660 5670 5681 5684 5686 5691 5699 5707 5713 5717 5721 5721 5713 5710 5708 5700 5693 5693 5687 5679
5566 5561 5567 5583 5591 5584 5578 5567 5560 5558 5571 5562 5557 5569 5577 5578 5579 5581 5590 5602 5633 5645 5647 5651 5661 5667 5677 5685 5689 5689 5696 5701 5703 5708 5714 5705 5699 5696 5694 5692 5684 5679 5672 5670
5562 5559 5564 5589 5587 5591 5581 5579 5567 5575 5568 5563 5561 5565 5580 5585 5586 5588 5587 5602 5638 5647 5656 5656 5662 5670 5675 5679 5687 5692 5693 5691 5694 5695 5694 5688 5685 5684 5682 5673 5669 5667 5662 5654
5560 5554 5553 5547 5559 5575 5571 5575 5570 5572 5560 5560 5562 5566 5583 5580 5578 5588 5585 5598 5628 5644 5653 5657 5663 5666 5671 5673 5678 5685 5690 5690 5684 5683 5684 5682 5680 5676 5669 5658 5650 5647 5645 5647
5560 5556 5561 5565 5570 5572 5571 5568 5574 5572 5560 5558 5568 5570 5570 5571 5567 5573 5579 5595 5613 5628 5637 5650 5659 5668 5666 5666 5681 5686 5692 5689 5686 5681 5677 5669 5665 5658 5651 5642 5636 5633 5627 5632
5558 5557 5560 5570 5579 5577 5567 5574 5573 5574 5564 5564 5573 5572 5571 5575 5576 5572 5575 5589 5602 5613 5626 5636 5644 5659 5658 5669 5676 5683 5684 5680 5679 5669 5661 5656 5651 5644 5637 5626 5625 5610 5625 5621
5551 5554 5559 5569 5581 5576 5564 5572 5570 5570 5565 5560 5565 5561 5569 5575 5576 5566 5571 5581 5593 5604 5618 5629 5640 5646 5649 5661 5662 5675 5673 5667 5662 5655 5647 5642 5640 5635 5624 5623 5622 5607 5600 5608
5555 5556 5552 5563 5572 5575 5574 5581 5574 5570 5568 5569 5569 5567 5568 5569 5576 5565 5566 5573 5589 5595 5604 5618 5628 5635 5642 5647 5648 5653 5651 5649 5644 5639 5634 5628 5627 5624 5614 5607 5613 5604 5606 5602
5552 5553 5550 5553 5558 5574 5570 5578 5571 5566 5570 5575 5571 5573 5570 5575 5585 5575 5566 5568 5579 5588 5595 5605 5618 5629 5632 5635 5637 5637 5631 5631 5630 5626 5624 5620 5612 5610 5604 5602 5604 5592 5595 5584
5554 5551 5544 5555 5552 5558 5567 5578 5580 5576 5574 5576 5572 5572 5572 5571 5576 5574 5564 5563 5573 5581 5588 5596 5604 5613 5621 5623 5627 5624 5620 5617 5614 5610 5611 5607 5598 5597 5591 5588 5586 5581 5578 5580
5557 5558 5554 5553 5549 5572 5574 5576 5582 5574 5573 5574 5574 5572 5570 5566 5556 5557 5558 5562 5564 5571 5581 5586 5592 5599 5607 5612 5615 5613 5612 5608 5598 5596 5596 5592 5586 5589 5584 5573 5576 5568 5567 5565
5549 5551 5558 5554 5548 5553 5571 5576 5567 5572 5576 5576 5574 5572 5569 5567 5561 5558 5557 5561 5563 5565 5570 5574 5580 5584 5589 5594 5599 5597 5597 5591 5584 5582 5586 5579 5579 5576 5574 5559 5556 5552 5556 5553
5545 5551 5554 5554 5567 5569 5568 5570 5572 5571 5572 5575 5571 5570 5570 5569 5564 5557 5555 5555 5556 5558 5558 5562 5565 5570 5574 5580 5585 5587 5583 5581 5570 5569 5568 5567 5562 5557 5559 5552 5547 5547 5548 5548
5550 5547 5551 5554 5569 5567 5568 5570 5569 5572 5571 5572 5570 5567 5568 5567 5561 5558 5554 5552 5552 5551 5554 5554 5557 5558 5562 5567 5568 5570 5570 5570 5563 5553 5548 5555 5548 5547 5545 5542 5544 5543 5544 5546
5543 5544 5553 5557 5562 5565 5571 5571 5572 5571 5569 5567 5568 5565 5565 5566 5560 5556 5553 5551 5548 5546 5546 5545 5544 5544 5547 5552 5559 5554 5558 5560 5554 5547 5544 5548 5542 5542 5540 5538 5540 5544 5543 5546
5546 5548 5550 5560 5564 5561 5563 5569 5569 5567 5567 5567 5565 5564 5562 5561 5558 5554 5551 5549 5546 5547 5545 5543 5537 5535 5537 5541 5545 5546 5550 5554 5553 5547 5540 5540 5539 5537 5539 5538 5535 5530 5528 5525